Time,TemperatureF,DewpointF,PressureIn,WindDirection,WindDirectionDegrees,WindSpeedMPH,WindSpeedGustMPH,Humidity,HourlyPrecipIn,Conditions,Clouds,dailyrainin,SoftwareType,DateUTC
2013-03-18 00:00:00,27.0,21.6,30.13,WSW,248,0.4,0.8,80,0.00,,,0.00,WUHU216HW,2013-03-18 04:00:00,
2013-03-18 00:01:00,27.0,21.3,30.13,NW,315,0.0,0.8,79,0.00,,,0.00,WUHU216HW,2013-03-18 04:01:00,
2013-03-18 00:06:00,27.0,21.3,30.13,NNW,338,0.0,0.4,79,0.00,,,0.00,WUHU216HW,2013-03-18 04:06:00,
2013-03-18 00:11:00,27.0,21.3,30.12,North,0,0.0,0.4,79,0.00,,,0.00,WUHU216HW,2013-03-18 04:11:00,
2013-03-18 00:16:00,27.0,21.3,30.12,NW,315,0.0,0.4,79,0.00,,,0.00,WUHU216HW,2013-03-18 04:16:00,
2013-03-18 00:21:00,27.0,21.3,30.12,West,270,0.4,0.4,79,0.00,,,0.00,WUHU216HW,2013-03-18 04:21:00,
2013-03-18 00:26:00,27.0,21.3,30.12,North,0,0.4,0.4,79,0.00,,,0.00,WUHU216HW,2013-03-18 04:26:00,
2013-03-18 00:31:00,27.0,21.3,30.12,North,0,0.0,0.4,79,0.00,,,0.00,WUHU216HW,2013-03-18 04:31:00,
2013-03-18 00:36:00,27.0,21.3,30.12,East,90,4.0,4.0,79,0.00,,,0.00,WUHU216HW,2013-03-18 04:36:00,
2013-03-18 00:41:00,27.2,21.5,30.12,NNE,23,0.4,4.0,79,0.00,,,0.00,WUHU216HW,2013-03-18 04:41:00,
2013-03-18 00:47:00,27.2,21.5,30.12,NNW,338,0.0,4.0,79,0.00,,,0.00,WUHU216HW,2013-03-18 04:47:00,
2013-03-18 00:52:00,27.4,21.7,30.12,ENE,68,0.0,0.4,79,0.00,,,0.00,WUHU216HW,2013-03-18 04:52:00,
2013-03-18 00:57:00,27.5,21.5,30.11,NE,45,0.0,0.4,78,0.00,,,0.00,WUHU216HW,2013-03-18 04:57:00,
2013-03-18 01:02:00,27.5,21.5,30.11,WNW,293,0.0,2.6,78,0.00,,,0.00,WUHU216HW,2013-03-18 05:02:00,
2013-03-18 01:07:00,27.7,21.4,30.11,East,90,0.4,2.6,77,0.00,,,0.00,WUHU216HW,2013-03-18 05:07:00,
2013-03-18 01:12:00,27.7,21.4,30.11,NNE,23,0.8,2.6,77,0.00,,,0.00,WUHU216HW,2013-03-18 05:12:00,
2013-03-18 01:17:00,27.7,21.4,30.11,North,0,0.0,2.6,77,0.00,,,0.00,WUHU216HW,2013-03-18 05:17:00,
2013-03-18 01:22:00,27.7,21.4,30.10,NNE,23,0.8,3.6,77,0.00,,,0.00,WUHU216HW,2013-03-18 05:22:00,
2013-03-18 01:27:00,27.7,21.4,30.10,East,90,0.8,3.6,77,0.00,,,0.00,WUHU216HW,2013-03-18 05:27:00,
2013-03-18 01:32:00,27.7,21.4,30.10,ESE,113,0.0,2.6,77,0.00,,,0.00,WUHU216HW,2013-03-18 05:32:00,
2013-03-18 01:38:00,28.1,21.8,30.10,East,90,0.8,4.0,77,0.00,,,0.00,WUHU216HW,2013-03-18 05:38:00,
2013-03-18 01:43:00,28.1,21.4,30.10,East,90,0.8,4.0,76,0.00,,,0.00,WUHU216HW,2013-03-18 05:43:00,
2013-03-18 01:48:00,28.3,21.6,30.10,South,180,0.8,4.0,76,0.00,,,0.00,WUHU216HW,2013-03-18 05:48:00,
2013-03-18 01:53:00,28.3,21.6,30.10,NE,45,2.2,2.2,76,0.00,,,0.00,WUHU216HW,2013-03-18 05:53:00,
2013-03-18 01:58:00,28.4,21.8,30.09,ESE,113,2.2,3.6,76,0.00,,,0.00,WUHU216HW,2013-03-18 05:58:00,
2013-03-18 02:03:00,28.6,22.0,30.09,SE,135,0.4,4.0,76,0.00,,,0.00,WUHU216HW,2013-03-18 06:03:00,
2013-03-18 02:08:00,28.6,22.0,30.09,East,90,3.6,6.8,76,0.00,,,0.00,WUHU216HW,2013-03-18 06:08:00,
2013-03-18 02:13:00,28.8,22.1,30.09,ENE,68,2.6,6.8,76,0.00,,,0.00,WUHU216HW,2013-03-18 06:13:00,
2013-03-18 02:18:00,29.0,22.3,30.09,ESE,113,1.4,2.6,76,0.00,,,0.00,WUHU216HW,2013-03-18 06:18:00,
2013-03-18 02:23:00,29.0,22.3,30.09,ESE,113,0.8,3.6,76,0.00,,,0.00,WUHU216HW,2013-03-18 06:23:00,
2013-03-18 02:28:00,28.8,21.9,30.09,ESE,113,0.8,3.6,75,0.00,,,0.00,WUHU216HW,2013-03-18 06:28:00,
2013-03-18 02:33:00,28.8,22.1,30.09,SE,135,4.0,5.0,76,0.00,,,0.00,WUHU216HW,2013-03-18 06:33:00,
2013-03-18 02:38:00,29.0,22.1,30.08,ESE,113,0.4,5.0,75,0.00,,,0.00,WUHU216HW,2013-03-18 06:38:00,
2013-03-18 02:43:00,29.0,22.3,30.08,NE,45,1.8,5.0,76,0.00,,,0.00,WUHU216HW,2013-03-18 06:43:00,
2013-03-18 02:48:00,29.0,22.3,30.08,East,90,6.8,6.8,76,0.00,,,0.00,WUHU216HW,2013-03-18 06:48:00,
2013-03-18 02:53:00,29.0,22.1,30.07,East,90,1.4,6.8,75,0.00,,,0.00,WUHU216HW,2013-03-18 06:53:00,
2013-03-18 02:59:00,29.0,22.1,30.08,SE,135,1.8,3.2,75,0.00,,,0.00,WUHU216HW,2013-03-18 06:59:00,
2013-03-18 03:04:00,29.0,22.3,30.08,North,0,0.0,2.6,76,0.00,,,0.00,WUHU216HW,2013-03-18 07:04:00,
2013-03-18 03:09:00,29.2,22.2,30.08,East,90,0.0,3.2,75,0.00,,,0.00,WUHU216HW,2013-03-18 07:09:00,
2013-03-18 03:14:00,29.2,22.2,30.08,NE,45,1.8,3.2,75,0.00,,,0.00,WUHU216HW,2013-03-18 07:14:00,
2013-03-18 03:19:00,29.2,22.5,30.07,ENE,68,5.0,5.0,76,0.00,,,0.00,WUHU216HW,2013-03-18 07:19:00,
2013-03-18 03:24:00,29.3,22.4,30.07,East,90,2.2,5.0,75,0.00,,,0.00,WUHU216HW,2013-03-18 07:24:00,
2013-03-18 03:29:00,29.5,22.9,30.07,ESE,113,0.8,3.2,76,0.00,,,0.00,WUHU216HW,2013-03-18 07:29:00,
2013-03-18 03:34:00,29.5,22.9,30.07,ENE,68,1.4,3.6,76,0.00,,,0.00,WUHU216HW,2013-03-18 07:34:00,
2013-03-18 03:39:00,29.5,22.5,30.07,ENE,68,6.8,6.8,75,0.00,,,0.00,WUHU216HW,2013-03-18 07:39:00,
2013-03-18 03:44:00,29.7,22.7,30.07,ESE,113,0.4,6.8,75,0.00,,,0.00,WUHU216HW,2013-03-18 07:44:00,
2013-03-18 03:49:00,29.7,22.7,30.07,SE,135,3.6,6.2,75,0.00,,,0.00,WUHU216HW,2013-03-18 07:49:00,
2013-03-18 03:54:00,29.7,23.1,30.07,East,90,0.4,3.6,76,0.00,,,0.00,WUHU216HW,2013-03-18 07:54:00,
2013-03-18 03:59:00,29.7,22.7,30.07,NE,45,2.2,4.0,75,0.00,,,0.00,WUHU216HW,2013-03-18 07:59:00,
2013-03-18 04:04:00,29.9,22.9,30.07,East,90,0.4,4.0,75,0.00,,,0.00,WUHU216HW,2013-03-18 08:04:00,
2013-03-18 04:09:00,29.9,22.9,30.07,East,90,1.8,4.4,75,0.00,,,0.00,WUHU216HW,2013-03-18 08:09:00,
2013-03-18 04:14:00,29.9,22.9,30.07,ESE,113,0.4,4.4,75,0.00,,,0.00,WUHU216HW,2013-03-18 08:14:00,
2013-03-18 04:20:00,29.9,23.2,30.07,ENE,68,2.2,2.2,76,0.00,,,0.00,WUHU216HW,2013-03-18 08:20:00,
2013-03-18 04:25:00,29.9,22.9,30.07,East,90,1.8,2.6,75,0.00,,,0.00,WUHU216HW,2013-03-18 08:25:00,
2013-03-18 04:30:00,30.1,23.0,30.06,West,270,0.8,2.6,75,0.00,,,0.00,WUHU216HW,2013-03-18 08:30:00,
2013-03-18 04:35:00,30.1,23.0,30.06,ESE,113,2.2,3.6,75,0.00,,,0.00,WUHU216HW,2013-03-18 08:35:00,
2013-03-18 04:40:00,30.1,22.8,30.05,East,90,0.4,4.0,74,0.00,,,0.00,WUHU216HW,2013-03-18 08:40:00,
2013-03-18 04:45:00,30.2,23.2,30.05,ESE,113,0.4,4.0,75,0.00,,,0.00,WUHU216HW,2013-03-18 08:45:00,
2013-03-18 04:50:00,30.2,22.9,30.05,SSE,158,2.6,5.8,74,0.00,,,0.00,WUHU216HW,2013-03-18 08:50:00,
2013-03-18 04:55:00,30.4,23.0,30.04,East,90,2.2,5.8,74,0.00,,,0.00,WUHU216HW,2013-03-18 08:55:00,
2013-03-18 05:00:00,30.4,23.0,30.03,East,90,4.4,4.4,74,0.00,,,0.00,WUHU216HW,2013-03-18 09:00:00,
2013-03-18 05:05:00,30.4,23.0,30.03,East,90,0.4,5.0,74,0.00,,,0.00,WUHU216HW,2013-03-18 09:05:00,
2013-03-18 05:10:00,30.6,23.0,30.03,ESE,113,4.4,5.0,73,0.00,,,0.00,WUHU216HW,2013-03-18 09:10:00,
2013-03-18 05:15:00,30.6,23.2,30.02,SE,135,1.8,4.4,74,0.00,,,0.00,WUHU216HW,2013-03-18 09:15:00,
2013-03-18 05:20:00,30.8,23.1,30.02,East,90,5.0,8.0,73,0.00,,,0.00,WUHU216HW,2013-03-18 09:20:00,
2013-03-18 05:25:00,31.0,23.6,30.02,ESE,113,0.8,8.0,74,0.00,,,0.00,WUHU216HW,2013-03-18 09:25:00,
2013-03-18 05:30:00,31.0,23.6,30.02,SSE,158,2.2,7.6,74,0.00,,,0.00,WUHU216HW,2013-03-18 09:30:00,
2013-03-18 05:35:00,31.1,23.8,30.02,ESE,113,4.0,7.6,74,0.00,,,0.00,WUHU216HW,2013-03-18 09:35:00,
2013-03-18 05:40:00,31.1,23.5,30.02,SE,135,3.6,6.8,73,0.00,,,0.00,WUHU216HW,2013-03-18 09:40:00,
2013-03-18 05:45:00,31.3,23.7,30.01,ESE,113,5.4,5.4,73,0.00,,,0.00,WUHU216HW,2013-03-18 09:45:00,
2013-03-18 05:51:00,31.3,23.7,30.01,NNE,23,6.8,6.8,73,0.00,,,0.00,WUHU216HW,2013-03-18 09:51:00,
2013-03-18 05:56:00,31.5,24.1,30.01,ESE,113,6.8,9.0,74,0.00,,,0.00,WUHU216HW,2013-03-18 09:56:00,
2013-03-18 06:01:00,31.5,24.1,30.01,ESE,113,8.0,9.0,74,0.00,,,0.00,WUHU216HW,2013-03-18 10:01:00,
2013-03-18 06:06:00,31.7,24.3,30.00,ESE,113,15.2,15.2,74,0.00,,,0.00,WUHU216HW,2013-03-18 10:06:00,
2013-03-18 06:11:00,31.7,24.3,30.01,SE,135,7.2,15.2,74,0.00,,,0.00,WUHU216HW,2013-03-18 10:11:00,
2013-03-18 06:17:00,32.0,24.4,30.01,SE,135,6.8,7.2,73,0.00,,,0.00,WUHU216HW,2013-03-18 10:17:00,
2013-03-18 06:22:00,32.0,24.7,30.01,ESE,113,9.8,9.8,74,0.00,,,0.00,WUHU216HW,2013-03-18 10:22:00,
2013-03-18 06:27:00,32.0,24.7,30.01,East,90,7.6,9.8,74,0.00,,,0.00,WUHU216HW,2013-03-18 10:27:00,
2013-03-18 06:32:00,32.0,25.0,30.01,ESE,113,5.0,7.6,75,0.00,,,0.00,WUHU216HW,2013-03-18 10:32:00,
2013-03-18 06:37:00,32.2,25.5,30.00,SE,135,6.8,10.8,76,0.00,,,0.00,WUHU216HW,2013-03-18 10:37:00,
2013-03-18 06:42:00,32.2,26.2,30.00,East,90,9.4,10.8,78,0.00,,,0.00,WUHU216HW,2013-03-18 10:42:00,
2013-03-18 06:47:00,32.2,26.8,30.01,ESE,113,4.4,10.8,80,0.00,,,0.00,WUHU216HW,2013-03-18 10:47:00,
2013-03-18 06:52:00,32.4,27.3,30.00,ESE,113,6.2,9.4,81,0.00,,,0.00,WUHU216HW,2013-03-18 10:52:00,
2013-03-18 06:57:00,32.2,27.4,29.99,ESE,113,3.6,9.4,82,0.00,,,0.00,WUHU216HW,2013-03-18 10:57:00,
2013-03-18 07:02:00,32.2,27.6,29.99,ESE,113,5.0,8.0,83,0.00,,,0.00,WUHU216HW,2013-03-18 11:02:00,
2013-03-18 07:07:00,32.2,28.0,29.99,ESE,113,6.8,8.0,84,0.00,,,0.00,WUHU216HW,2013-03-18 11:07:00,
2013-03-18 07:12:00,32.2,28.5,29.99,ESE,113,4.0,9.0,86,0.00,,,0.00,WUHU216HW,2013-03-18 11:12:00,
2013-03-18 07:17:00,32.0,28.4,29.99,ESE,113,5.4,9.0,86,0.00,,,0.00,WUHU216HW,2013-03-18 11:17:00,
2013-03-18 07:22:00,32.0,28.4,29.99,ESE,113,4.0,6.8,86,0.00,,,0.00,WUHU216HW,2013-03-18 11:22:00,
2013-03-18 07:27:00,32.0,28.6,29.99,ESE,113,4.4,6.8,87,0.00,,,0.00,WUHU216HW,2013-03-18 11:27:00,
2013-03-18 07:33:00,32.0,28.6,29.99,ESE,113,4.0,6.8,87,0.00,,,0.00,WUHU216HW,2013-03-18 11:33:00,
2013-03-18 07:38:00,32.0,28.4,29.99,ESE,113,6.2,12.6,86,0.00,,,0.00,WUHU216HW,2013-03-18 11:38:00,
2013-03-18 07:43:00,32.0,28.4,29.98,ESE,113,6.2,12.6,86,0.00,,,0.00,WUHU216HW,2013-03-18 11:43:00,
2013-03-18 07:48:00,32.2,28.5,29.99,ESE,113,5.0,6.8,86,0.00,,,0.00,WUHU216HW,2013-03-18 11:48:00,
2013-03-18 07:53:00,32.2,28.8,29.98,ESE,113,4.0,11.6,87,0.00,,,0.00,WUHU216HW,2013-03-18 11:53:00,
2013-03-18 07:58:00,32.2,28.8,29.97,ESE,113,8.6,11.6,87,0.00,,,0.00,WUHU216HW,2013-03-18 11:58:00,
2013-03-18 08:03:00,32.2,28.8,29.97,ESE,113,5.4,9.4,87,0.00,,,0.00,WUHU216HW,2013-03-18 12:03:00,
2013-03-18 08:08:00,32.2,29.1,29.97,ESE,113,6.2,9.4,88,0.00,,,0.00,WUHU216HW,2013-03-18 12:08:00,
2013-03-18 08:13:00,32.2,29.4,29.97,ESE,113,6.8,9.8,89,0.00,,,0.00,WUHU216HW,2013-03-18 12:13:00,
2013-03-18 08:18:00,32.2,29.4,29.97,ESE,113,9.4,9.8,89,0.00,,,0.00,WUHU216HW,2013-03-18 12:18:00,
2013-03-18 08:23:00,32.0,29.3,29.97,ESE,113,4.0,10.8,89,0.00,,,0.00,WUHU216HW,2013-03-18 12:23:00,
2013-03-18 08:28:00,32.0,29.3,29.97,ESE,113,2.6,10.8,89,0.00,,,0.00,WUHU216HW,2013-03-18 12:28:00,
2013-03-18 08:33:00,32.0,29.3,29.97,ESE,113,9.4,9.4,89,0.00,,,0.00,WUHU216HW,2013-03-18 12:33:00,
2013-03-18 08:38:00,32.0,29.3,29.96,ESE,113,1.4,9.4,89,0.00,,,0.00,WUHU216HW,2013-03-18 12:38:00,
2013-03-18 08:44:00,32.2,29.4,29.96,ESE,113,7.6,9.4,89,0.00,,,0.00,WUHU216HW,2013-03-18 12:44:00,
2013-03-18 08:49:00,32.0,29.3,29.96,ESE,113,4.0,9.4,89,0.00,,,0.00,WUHU216HW,2013-03-18 12:49:00,
2013-03-18 08:54:00,32.0,29.3,29.95,ESE,113,9.4,9.4,89,0.00,,,0.00,WUHU216HW,2013-03-18 12:54:00,
2013-03-18 08:59:00,32.0,29.3,29.95,ESE,113,6.8,9.4,89,0.00,,,0.00,WUHU216HW,2013-03-18 12:59:00,
2013-03-18 09:04:00,32.0,29.3,29.94,ESE,113,4.0,7.2,89,0.00,,,0.00,WUHU216HW,2013-03-18 13:04:00,
2013-03-18 09:09:00,32.0,29.3,29.94,ESE,113,2.6,10.8,89,0.00,,,0.00,WUHU216HW,2013-03-18 13:09:00,
2013-03-18 09:14:00,32.0,29.3,29.94,ESE,113,10.8,10.8,89,0.00,,,0.00,WUHU216HW,2013-03-18 13:14:00,
2013-03-18 09:19:00,32.0,29.3,29.94,ESE,113,10.8,10.8,89,0.00,,,0.00,WUHU216HW,2013-03-18 13:19:00,
2013-03-18 09:31:00,31.9,29.1,29.94,ESE,113,6.2,6.2,89,0.00,,,0.00,WUHU216HW,2013-03-18 13:31:00,
2013-03-18 09:36:00,31.9,29.1,29.94,ESE,113,6.8,11.6,89,0.00,,,0.00,WUHU216HW,2013-03-18 13:36:00,
2013-03-18 09:41:00,31.9,29.1,29.94,ESE,113,5.4,11.6,89,0.00,,,0.00,WUHU216HW,2013-03-18 13:41:00,
2013-03-18 09:46:00,31.9,29.1,29.94,ESE,113,5.0,10.8,89,0.00,,,0.00,WUHU216HW,2013-03-18 13:46:00,
2013-03-18 09:51:00,31.9,29.1,29.94,ESE,113,8.0,10.8,89,0.00,,,0.00,WUHU216HW,2013-03-18 13:51:00,
2013-03-18 09:57:00,31.9,29.3,29.93,ESE,113,5.8,11.2,90,0.00,,,0.00,WUHU216HW,2013-03-18 13:57:00,
2013-03-18 10:02:00,32.0,29.5,29.93,ESE,113,4.4,11.2,90,0.00,,,0.00,WUHU216HW,2013-03-18 14:02:00,
2013-03-18 10:07:00,32.0,29.3,29.92,ESE,113,5.0,7.6,89,0.00,,,0.00,WUHU216HW,2013-03-18 14:07:00,
2013-03-18 10:12:00,32.0,29.5,29.92,ESE,113,5.0,9.0,90,0.00,,,0.00,WUHU216HW,2013-03-18 14:12:00,
2013-03-18 10:17:00,32.0,29.3,29.92,ESE,113,7.6,9.4,89,0.00,,,0.00,WUHU216HW,2013-03-18 14:17:00,
2013-03-18 10:22:00,31.9,29.3,29.91,ESE,113,7.2,9.4,90,0.00,,,0.00,WUHU216HW,2013-03-18 14:22:00,
2013-03-18 10:27:00,32.0,29.3,29.90,ESE,113,5.8,12.0,89,0.00,,,0.00,WUHU216HW,2013-03-18 14:27:00,
2013-03-18 10:32:00,32.0,29.3,29.90,ESE,113,2.6,12.0,89,0.00,,,0.00,WUHU216HW,2013-03-18 14:32:00,
2013-03-18 10:37:00,32.0,29.3,29.90,ESE,113,8.6,8.6,89,0.00,,,0.00,WUHU216HW,2013-03-18 14:37:00,
2013-03-18 10:42:00,32.0,29.3,29.90,ESE,113,3.2,8.6,89,0.00,,,0.00,WUHU216HW,2013-03-18 14:42:00,
2013-03-18 10:47:00,32.0,29.5,29.90,ESE,113,5.0,9.4,90,0.00,,,0.00,WUHU216HW,2013-03-18 14:47:00,
2013-03-18 10:52:00,32.0,29.3,29.89,ESE,113,5.4,9.4,89,0.00,,,0.00,WUHU216HW,2013-03-18 14:52:00,
2013-03-18 10:58:00,32.0,29.5,29.89,North,0,0.0,5.4,90,0.00,,,0.00,WUHU216HW,2013-03-18 14:58:00,
2013-03-18 11:02:00,32.2,29.7,29.89,North,0,0.0,0.0,90,0.00,,,0.00,WUHU216HW,2013-03-18 15:02:00,
2013-03-18 11:08:00,32.2,29.4,29.89,North,0,0.0,0.0,89,0.00,,,0.00,WUHU216HW,2013-03-18 15:08:00,
2013-03-18 11:13:00,32.2,29.4,29.89,North,0,0.0,0.0,89,0.00,,,0.00,WUHU216HW,2013-03-18 15:13:00,
2013-03-18 11:18:00,32.2,29.7,29.89,North,0,0.0,0.0,90,0.00,,,0.00,WUHU216HW,2013-03-18 15:18:00,
2013-03-18 11:23:00,32.2,29.7,29.89,North,0,0.0,0.0,90,0.00,,,0.00,WUHU216HW,2013-03-18 15:23:00,
2013-03-18 11:28:00,32.0,29.8,29.89,North,0,0.0,0.0,91,0.00,,,0.00,WUHU216HW,2013-03-18 15:28:00,
2013-03-18 11:33:00,32.0,29.5,29.88,North,0,0.0,0.0,90,0.00,,,0.00,WUHU216HW,2013-03-18 15:33:00,
2013-03-18 11:38:00,32.0,29.5,29.87,North,0,0.0,0.0,90,0.00,,,0.00,WUHU216HW,2013-03-18 15:38:00,
2013-03-18 11:43:00,32.2,29.7,29.86,North,0,0.0,0.0,90,0.00,,,0.00,WUHU216HW,2013-03-18 15:43:00,
2013-03-18 11:48:00,32.4,30.1,29.86,North,0,0.0,0.0,91,0.00,,,0.00,WUHU216HW,2013-03-18 15:48:00,
2013-03-18 11:53:00,32.6,30.2,29.86,North,0,0.0,0.0,91,0.00,,,0.00,WUHU216HW,2013-03-18 15:53:00,
2013-03-18 11:58:00,32.4,30.1,29.87,North,0,0.0,0.0,91,0.00,,,0.00,WUHU216HW,2013-03-18 15:58:00,
2013-03-18 12:03:00,32.6,30.2,29.86,North,0,0.0,0.0,91,0.00,,,0.00,WUHU216HW,2013-03-18 16:03:00,
2013-03-18 12:09:00,32.6,30.2,29.85,North,0,0.0,0.0,91,0.00,,,0.00,WUHU216HW,2013-03-18 16:09:00,
2013-03-18 12:14:00,32.8,30.7,29.85,North,0,0.0,0.0,92,0.00,,,0.00,WUHU216HW,2013-03-18 16:14:00,
2013-03-18 12:19:00,32.8,30.4,29.85,North,0,0.0,0.0,91,0.00,,,0.00,WUHU216HW,2013-03-18 16:19:00,
2013-03-18 12:24:00,32.8,30.4,29.85,North,0,0.0,0.0,91,0.00,,,0.00,WUHU216HW,2013-03-18 16:24:00,
2013-03-18 12:29:00,32.8,30.4,29.85,North,0,0.0,0.0,91,0.00,,,0.00,WUHU216HW,2013-03-18 16:29:00,
2013-03-18 12:34:00,32.6,30.2,29.85,North,0,0.0,0.0,91,0.00,,,0.00,WUHU216HW,2013-03-18 16:34:00,
2013-03-18 12:39:00,32.6,30.5,29.86,North,0,0.0,0.0,92,0.00,,,0.00,WUHU216HW,2013-03-18 16:39:00,
2013-03-18 12:44:00,32.6,30.5,29.86,North,0,0.0,0.0,92,0.00,,,0.00,WUHU216HW,2013-03-18 16:44:00,
2013-03-18 12:49:00,32.4,30.3,29.86,North,0,0.0,0.0,92,0.00,,,0.00,WUHU216HW,2013-03-18 16:49:00,
2013-03-18 12:54:00,32.4,30.3,29.86,North,0,0.0,0.0,92,0.00,,,0.00,WUHU216HW,2013-03-18 16:54:00,
2013-03-18 12:59:00,32.4,30.3,29.86,North,0,0.0,0.0,92,0.00,,,0.00,WUHU216HW,2013-03-18 16:59:00,
2013-03-18 13:04:00,32.4,30.3,29.86,North,0,0.0,0.0,92,0.00,,,0.00,WUHU216HW,2013-03-18 17:04:00,
2013-03-18 13:09:00,32.6,30.5,29.85,North,0,0.0,0.0,92,0.00,,,0.00,WUHU216HW,2013-03-18 17:09:00,
2013-03-18 13:14:00,32.6,30.5,29.85,North,0,0.0,0.0,92,0.00,,,0.00,WUHU216HW,2013-03-18 17:14:00,
2013-03-18 13:19:00,32.6,30.5,29.84,North,0,0.0,0.0,92,0.00,,,0.00,WUHU216HW,2013-03-18 17:19:00,
2013-03-18 13:25:00,32.6,30.5,29.84,North,0,0.0,0.0,92,0.00,,,0.00,WUHU216HW,2013-03-18 17:25:00,
2013-03-18 13:30:00,32.8,30.7,29.83,ESE,113,0.0,0.0,92,0.00,,,0.00,WUHU216HW,2013-03-18 17:30:00,
2013-03-18 13:35:00,32.8,30.7,29.83,North,0,0.0,0.0,92,0.00,,,0.00,WUHU216HW,2013-03-18 17:35:00,
2013-03-18 13:40:00,32.8,31.0,29.83,North,0,0.0,0.0,93,0.00,,,0.00,WUHU216HW,2013-03-18 17:40:00,
2013-03-18 13:45:00,32.9,30.9,29.82,North,0,0.0,0.0,92,0.00,,,0.00,WUHU216HW,2013-03-18 17:45:00,
2013-03-18 13:50:00,33.1,31.1,29.82,North,0,0.0,0.0,92,0.00,,,0.00,WUHU216HW,2013-03-18 17:50:00,
2013-03-18 13:55:00,32.9,30.9,29.82,North,0,0.0,0.0,92,0.00,,,0.00,WUHU216HW,2013-03-18 17:55:00,
2013-03-18 14:00:00,32.9,30.9,29.81,North,0,0.0,0.0,92,0.00,,,0.00,WUHU216HW,2013-03-18 18:00:00,
2013-03-18 14:05:00,32.9,30.9,29.81,North,0,0.0,0.0,92,0.00,,,0.00,WUHU216HW,2013-03-18 18:05:00,
2013-03-18 14:10:00,32.9,30.9,29.81,North,0,0.0,0.0,92,0.00,,,0.00,WUHU216HW,2013-03-18 18:10:00,
2013-03-18 14:15:00,32.9,30.9,29.81,North,0,0.0,0.0,92,0.00,,,0.00,WUHU216HW,2013-03-18 18:15:00,
2013-03-18 14:20:00,32.9,30.9,29.81,North,0,0.0,0.0,92,0.00,,,0.00,WUHU216HW,2013-03-18 18:20:00,
2013-03-18 14:25:00,32.9,30.9,29.81,North,0,0.0,0.0,92,0.00,,,0.00,WUHU216HW,2013-03-18 18:25:00,
2013-03-18 14:30:00,32.9,30.9,29.81,North,0,0.0,0.0,92,0.00,,,0.00,WUHU216HW,2013-03-18 18:30:00,
2013-03-18 14:35:00,32.9,30.9,29.80,North,0,0.0,0.0,92,0.00,,,0.00,WUHU216HW,2013-03-18 18:35:00,
2013-03-18 14:40:00,32.9,30.9,29.80,North,0,0.0,0.0,92,0.00,,,0.00,WUHU216HW,2013-03-18 18:40:00,
2013-03-18 14:45:00,32.9,30.9,29.80,North,0,0.0,0.0,92,0.00,,,0.00,WUHU216HW,2013-03-18 18:45:00,
2013-03-18 14:50:00,32.9,30.9,29.79,ESE,113,0.0,0.0,92,0.00,,,0.00,WUHU216HW,2013-03-18 18:50:00,
2013-03-18 14:55:00,33.1,31.1,29.79,North,0,0.0,0.0,92,0.00,,,0.00,WUHU216HW,2013-03-18 18:55:00,
2013-03-18 15:00:00,33.1,31.3,29.79,North,0,0.0,0.0,93,0.00,,,0.00,WUHU216HW,2013-03-18 19:00:00,
2013-03-18 15:05:00,33.3,31.1,29.78,North,0,0.0,0.0,92,0.00,,,0.00,WUHU216HW,2013-03-18 19:05:00,
2013-03-18 15:11:00,33.3,31.1,29.78,North,0,0.0,0.0,92,0.00,,,0.00,WUHU216HW,2013-03-18 19:11:00,
2013-03-18 15:16:00,33.3,31.4,29.78,North,0,0.0,0.0,93,0.00,,,0.00,WUHU216HW,2013-03-18 19:16:00,
2013-03-18 15:21:00,33.3,31.4,29.77,North,0,0.0,0.0,93,0.00,,,0.00,WUHU216HW,2013-03-18 19:21:00,
2013-03-18 15:26:00,33.3,31.4,29.77,North,0,0.0,0.0,93,0.00,,,0.00,WUHU216HW,2013-03-18 19:26:00,
2013-03-18 15:31:00,33.3,31.1,29.77,North,0,0.0,0.0,92,0.00,,,0.00,WUHU216HW,2013-03-18 19:31:00,
2013-03-18 15:36:00,33.3,31.1,29.77,North,0,0.0,0.0,92,0.00,,,0.00,WUHU216HW,2013-03-18 19:36:00,
2013-03-18 15:41:00,33.3,31.1,29.77,North,0,0.0,0.0,92,0.00,,,0.00,WUHU216HW,2013-03-18 19:41:00,
2013-03-18 15:46:00,33.3,31.1,29.77,North,0,0.0,0.0,92,0.00,,,0.00,WUHU216HW,2013-03-18 19:46:00,
2013-03-18 15:52:00,33.1,31.1,29.76,North,0,0.0,0.0,92,0.00,,,0.00,WUHU216HW,2013-03-18 19:52:00,
2013-03-18 15:57:00,33.3,31.1,29.76,North,0,0.0,0.0,92,0.00,,,0.00,WUHU216HW,2013-03-18 19:57:00,
2013-03-18 16:02:00,33.3,31.1,29.75,North,0,0.0,0.0,92,0.00,,,0.00,WUHU216HW,2013-03-18 20:02:00,
2013-03-18 16:07:00,33.5,31.3,29.75,North,0,0.0,0.0,92,0.00,,,0.00,WUHU216HW,2013-03-18 20:07:00,
2013-03-18 16:12:00,33.5,31.6,29.75,North,0,0.0,0.0,93,0.00,,,0.00,WUHU216HW,2013-03-18 20:12:00,
2013-03-18 16:17:00,33.5,31.3,29.75,North,0,0.0,0.0,92,0.00,,,0.00,WUHU216HW,2013-03-18 20:17:00,
2013-03-18 16:22:00,33.7,31.8,29.74,North,0,0.0,0.0,93,0.00,,,0.00,WUHU216HW,2013-03-18 20:22:00,
2013-03-18 16:27:00,33.7,31.8,29.74,North,0,0.0,0.0,93,0.00,,,0.00,WUHU216HW,2013-03-18 20:27:00,
2013-03-18 16:32:00,33.5,31.3,29.74,North,0,0.0,0.0,92,0.00,,,0.00,WUHU216HW,2013-03-18 20:32:00,
2013-03-18 16:37:00,33.5,31.3,29.74,North,0,0.0,0.0,92,0.00,,,0.00,WUHU216HW,2013-03-18 20:37:00,
2013-03-18 16:42:00,33.5,31.3,29.74,North,0,0.0,0.0,92,0.00,,,0.00,WUHU216HW,2013-03-18 20:42:00,
2013-03-18 16:47:00,33.5,31.3,29.74,North,0,0.0,0.0,92,0.00,,,0.00,WUHU216HW,2013-03-18 20:47:00,
2013-03-18 16:52:00,33.5,31.3,29.73,North,0,0.0,0.0,92,0.00,,,0.00,WUHU216HW,2013-03-18 20:52:00,
2013-03-18 16:57:00,33.5,31.3,29.72,North,0,0.0,0.0,92,0.00,,,0.00,WUHU216HW,2013-03-18 20:57:00,
2013-03-18 17:02:00,33.7,31.8,29.72,North,0,0.0,0.0,93,0.00,,,0.00,WUHU216HW,2013-03-18 21:02:00,
2013-03-18 17:07:00,33.7,31.8,29.73,North,0,0.0,0.0,93,0.00,,,0.00,WUHU216HW,2013-03-18 21:07:00,
2013-03-18 17:12:00,33.7,31.8,29.73,North,0,0.0,0.0,93,0.00,,,0.00,WUHU216HW,2013-03-18 21:12:00,
2013-03-18 17:17:00,33.7,31.8,29.72,North,0,0.0,0.0,93,0.00,,,0.00,WUHU216HW,2013-03-18 21:17:00,
2013-03-18 17:22:00,33.7,32.0,29.73,North,0,0.0,0.0,94,0.00,,,0.00,WUHU216HW,2013-03-18 21:22:00,
2013-03-18 17:28:00,33.7,32.0,29.72,North,0,0.0,0.0,94,0.00,,,0.00,WUHU216HW,2013-03-18 21:28:00,
2013-03-18 17:33:00,33.8,32.2,29.73,North,0,0.0,0.0,94,0.00,,,0.00,WUHU216HW,2013-03-18 21:33:00,
2013-03-18 17:38:00,34.0,32.4,29.72,North,0,0.0,0.0,94,0.00,,,0.00,WUHU216HW,2013-03-18 21:38:00,
2013-03-18 17:43:00,34.0,32.4,29.72,North,0,0.0,0.0,94,0.00,,,0.00,WUHU216HW,2013-03-18 21:43:00,
2013-03-18 17:48:00,34.0,32.1,29.72,North,0,0.0,0.0,93,0.00,,,0.00,WUHU216HW,2013-03-18 21:48:00,
2013-03-18 17:53:00,34.0,32.1,29.72,North,0,0.0,0.0,93,0.00,,,0.00,WUHU216HW,2013-03-18 21:53:00,
2013-03-18 17:58:00,34.0,32.1,29.72,North,0,0.0,0.0,93,0.00,,,0.00,WUHU216HW,2013-03-18 21:58:00,
2013-03-18 18:03:00,34.2,32.3,29.71,North,0,0.0,0.0,93,0.00,,,0.00,WUHU216HW,2013-03-18 22:03:00,
2013-03-18 18:08:00,34.2,32.3,29.71,North,0,0.0,0.0,93,0.00,,,0.00,WUHU216HW,2013-03-18 22:08:00,
2013-03-18 18:13:00,34.2,32.3,29.71,North,0,0.0,0.0,93,0.00,,,0.00,WUHU216HW,2013-03-18 22:13:00,
2013-03-18 18:18:00,34.2,32.6,29.71,North,0,0.0,0.0,94,0.00,,,0.00,WUHU216HW,2013-03-18 22:18:00,
2013-03-18 18:23:00,34.2,32.6,29.71,North,0,0.0,0.0,94,0.00,,,0.00,WUHU216HW,2013-03-18 22:23:00,
2013-03-18 18:28:00,34.4,32.8,29.71,North,0,0.0,0.0,94,0.00,,,0.00,WUHU216HW,2013-03-18 22:28:00,
2013-03-18 18:33:00,34.4,32.5,29.71,North,0,0.0,0.0,93,0.00,,,0.00,WUHU216HW,2013-03-18 22:33:00,
2013-03-18 18:39:00,34.6,32.7,29.71,North,0,0.0,0.0,93,0.00,,,0.00,WUHU216HW,2013-03-18 22:39:00,
2013-03-18 18:44:00,34.6,32.9,29.71,ESE,113,5.8,5.8,94,0.00,,,0.00,WUHU216HW,2013-03-18 22:44:00,
2013-03-18 18:49:00,34.6,32.7,29.71,SE,135,4.4,5.8,93,0.00,,,0.00,WUHU216HW,2013-03-18 22:49:00,
2013-03-18 18:54:00,34.6,32.7,29.70,ESE,113,3.6,5.0,93,0.00,,,0.00,WUHU216HW,2013-03-18 22:54:00,
2013-03-18 18:59:00,34.6,32.7,29.70,ESE,113,5.0,5.8,93,0.00,,,0.00,WUHU216HW,2013-03-18 22:59:00,
2013-03-18 19:04:00,34.6,32.7,29.70,ESE,113,6.2,8.0,93,0.00,,,0.00,WUHU216HW,2013-03-18 23:04:00,
2013-03-18 19:09:00,34.6,32.7,29.70,SE,135,6.2,8.0,93,0.00,,,0.00,WUHU216HW,2013-03-18 23:09:00,
2013-03-18 19:14:00,34.7,32.9,29.70,ESE,113,6.8,8.0,93,0.00,,,0.00,WUHU216HW,2013-03-18 23:14:00,
2013-03-18 19:19:00,34.7,32.9,29.70,North,0,0.0,8.0,93,0.00,,,0.00,WUHU216HW,2013-03-18 23:19:00,
2013-03-18 19:24:00,34.9,33.0,29.70,SE,135,5.8,6.8,93,0.00,,,0.00,WUHU216HW,2013-03-18 23:24:00,
2013-03-18 19:29:00,34.9,33.0,29.69,ESE,113,6.8,9.0,93,0.00,,,0.00,WUHU216HW,2013-03-18 23:29:00,
2013-03-18 19:34:00,34.9,33.0,29.69,SE,135,5.0,9.0,93,0.00,,,0.00,WUHU216HW,2013-03-18 23:34:00,
2013-03-18 19:39:00,34.9,33.0,29.69,ESE,113,7.2,8.0,93,0.00,,,0.00,WUHU216HW,2013-03-18 23:39:00,
2013-03-18 19:45:00,34.9,33.0,29.69,SE,135,2.6,7.2,93,0.00,,,0.00,WUHU216HW,2013-03-18 23:45:00,
2013-03-18 19:50:00,34.9,33.0,29.69,ESE,113,3.6,8.6,93,0.00,,,0.00,WUHU216HW,2013-03-18 23:50:00,
2013-03-18 19:55:00,34.9,33.0,29.69,ESE,113,5.8,8.6,93,0.00,,,0.00,WUHU216HW,2013-03-18 23:55:00,
2013-03-18 20:00:00,34.9,33.0,29.69,SE,135,4.4,8.0,93,0.00,,,0.00,WUHU216HW,2013-03-19 00:00:00,
2013-03-18 20:05:00,34.9,33.0,29.69,ESE,113,5.8,8.0,93,0.00,,,0.00,WUHU216HW,2013-03-19 00:05:00,
2013-03-18 20:10:00,34.9,33.0,29.69,ESE,113,6.2,6.8,93,0.00,,,0.00,WUHU216HW,2013-03-19 00:10:00,
2013-03-18 20:15:00,35.1,33.2,29.69,SE,135,5.0,7.6,93,0.00,,,0.00,WUHU216HW,2013-03-19 00:15:00,
2013-03-18 20:20:00,35.1,33.2,29.69,ESE,113,4.0,8.0,93,0.00,,,0.00,WUHU216HW,2013-03-19 00:20:00,
2013-03-18 20:25:00,35.1,33.2,29.69,SSE,158,5.8,8.0,93,0.00,,,0.00,WUHU216HW,2013-03-19 00:25:00,
2013-03-18 20:30:00,35.1,33.2,29.69,ESE,113,4.4,5.8,93,0.00,,,0.00,WUHU216HW,2013-03-19 00:30:00,
2013-03-18 20:35:00,35.3,33.4,29.69,SE,135,3.6,6.2,93,0.00,,,0.00,WUHU216HW,2013-03-19 00:35:00,
2013-03-18 20:40:00,35.3,33.4,29.69,SE,135,5.0,6.2,93,0.00,,,0.00,WUHU216HW,2013-03-19 00:40:00,
2013-03-18 20:45:00,35.3,33.4,29.69,SE,135,3.2,5.0,93,0.00,,,0.00,WUHU216HW,2013-03-19 00:45:00,
2013-03-18 20:50:00,35.3,33.4,29.70,SSE,158,2.6,6.2,93,0.00,,,0.00,WUHU216HW,2013-03-19 00:50:00,
2013-03-18 20:56:00,35.3,33.1,29.70,SE,135,3.2,6.2,92,0.00,,,0.00,WUHU216HW,2013-03-19 00:56:00,
2013-03-18 21:01:00,35.3,33.1,29.70,SE,135,3.6,3.6,92,0.00,,,0.00,WUHU216HW,2013-03-19 01:01:00,
2013-03-18 21:06:00,35.5,33.3,29.69,SSE,158,2.6,4.4,92,0.00,,,0.00,WUHU216HW,2013-03-19 01:06:00,
2013-03-18 21:12:00,35.5,33.3,29.69,East,90,6.8,6.8,92,0.00,,,0.00,WUHU216HW,2013-03-19 01:12:00,
2013-03-18 21:17:00,35.5,33.3,29.69,SE,135,6.8,6.8,92,0.00,,,0.00,WUHU216HW,2013-03-19 01:17:00,
2013-03-18 21:22:00,35.5,33.6,29.69,SE,135,2.2,6.8,93,0.00,,,0.00,WUHU216HW,2013-03-19 01:22:00,
2013-03-18 21:27:00,35.6,33.8,29.68,ESE,113,3.2,6.2,93,0.00,,,0.00,WUHU216HW,2013-03-19 01:27:00,
2013-03-18 21:32:00,35.6,33.8,29.69,SE,135,3.6,5.8,93,0.00,,,0.00,WUHU216HW,2013-03-19 01:32:00,
2013-03-18 21:37:00,35.6,33.8,29.68,SE,135,2.2,5.0,93,0.00,,,0.00,WUHU216HW,2013-03-19 01:37:00,
2013-03-18 21:42:00,35.6,33.8,29.68,SE,135,3.2,5.0,93,0.00,,,0.00,WUHU216HW,2013-03-19 01:42:00,
2013-03-18 21:47:00,35.6,33.5,29.68,SSE,158,5.0,5.0,92,0.00,,,0.00,WUHU216HW,2013-03-19 01:47:00,
2013-03-18 21:52:00,35.6,33.5,29.68,ESE,113,3.2,5.0,92,0.00,,,0.00,WUHU216HW,2013-03-19 01:52:00,
2013-03-18 21:57:00,35.8,33.7,29.68,ESE,113,5.0,5.0,92,0.00,,,0.00,WUHU216HW,2013-03-19 01:57:00,
2013-03-18 22:02:00,35.8,33.7,29.67,ENE,68,5.0,5.0,92,0.00,,,0.00,WUHU216HW,2013-03-19 02:02:00,
2013-03-18 22:07:00,35.8,33.7,29.67,ESE,113,2.2,5.0,92,0.00,,,0.00,WUHU216HW,2013-03-19 02:07:00,
2013-03-18 22:12:00,36.0,33.8,29.67,SSE,158,2.2,5.0,92,0.00,,,0.00,WUHU216HW,2013-03-19 02:12:00,
2013-03-18 22:18:00,36.0,33.8,29.68,SE,135,2.2,6.2,92,0.00,,,0.00,WUHU216HW,2013-03-19 02:18:00,
2013-03-18 22:23:00,36.0,33.8,29.68,ESE,113,4.4,6.2,92,0.00,,,0.00,WUHU216HW,2013-03-19 02:23:00,
2013-03-18 22:28:00,36.0,33.8,29.67,SSE,158,1.8,4.4,92,0.00,,,0.00,WUHU216HW,2013-03-19 02:28:00,
2013-03-18 22:33:00,36.0,33.8,29.67,ESE,113,1.8,3.6,92,0.00,,,0.00,WUHU216HW,2013-03-19 02:33:00,
2013-03-18 22:38:00,36.0,33.8,29.67,ESE,113,3.6,3.6,92,0.00,,,0.00,WUHU216HW,2013-03-19 02:38:00,
2013-03-18 22:43:00,36.0,33.8,29.68,North,0,0.0,3.6,92,0.00,,,0.00,WUHU216HW,2013-03-19 02:43:00,
2013-03-18 22:48:00,36.4,34.5,29.67,ESE,113,1.4,3.6,93,0.00,,,0.00,WUHU216HW,2013-03-19 02:48:00,
2013-03-18 22:53:00,36.4,34.2,29.67,ESE,113,3.6,3.6,92,0.00,,,0.00,WUHU216HW,2013-03-19 02:53:00,
2013-03-18 22:58:00,36.2,34.0,29.67,SE,135,0.0,3.6,92,0.00,,,0.00,WUHU216HW,2013-03-19 02:58:00,
2013-03-18 23:03:00,36.4,34.5,29.67,East,90,3.6,3.6,93,0.00,,,0.00,WUHU216HW,2013-03-19 03:03:00,
2013-03-18 23:08:00,36.4,34.5,29.67,East,90,3.6,3.6,93,0.00,,,0.00,WUHU216HW,2013-03-19 03:08:00,
2013-03-18 23:13:00,36.4,34.5,29.67,West,270,1.4,5.0,93,0.00,,,0.00,WUHU216HW,2013-03-19 03:13:00,
2013-03-18 23:18:00,36.4,34.5,29.67,ESE,113,1.4,7.2,93,0.00,,,0.00,WUHU216HW,2013-03-19 03:18:00,
2013-03-18 23:23:00,36.4,34.5,29.67,ESE,113,2.2,7.2,93,0.00,,,0.00,WUHU216HW,2013-03-19 03:23:00,
2013-03-18 23:28:00,36.4,34.5,29.67,WSW,248,3.2,3.2,93,0.00,,,0.00,WUHU216HW,2013-03-19 03:28:00,
2013-03-18 23:33:00,36.4,34.5,29.67,ESE,113,0.8,3.2,93,0.00,,,0.00,WUHU216HW,2013-03-19 03:33:00,
2013-03-18 23:38:00,36.4,34.5,29.67,ESE,113,0.0,2.6,93,0.00,,,0.00,WUHU216HW,2013-03-19 03:38:00,
2013-03-18 23:43:00,36.4,34.5,29.66,SE,135,3.6,5.4,93,0.00,,,0.00,WUHU216HW,2013-03-19 03:43:00,
2013-03-18 23:49:00,36.5,34.9,29.67,SE,135,2.6,5.4,94,0.00,,,0.00,WUHU216HW,2013-03-19 03:49:00,
2013-03-18 23:54:00,36.5,34.9,29.66,ESE,113,2.6,3.6,94,0.00,,,0.00,WUHU216HW,2013-03-19 03:54:00,
2013-03-18 23:59:00,36.5,34.7,29.66,ESE,113,4.4,4.4,93,0.00,,,0.00,WUHU216HW,2013-03-19 03:59:00,